Total_Precipitation_Accumulation
0.00 0.00 0.00 0.00 0.00 0.00 0.00 0.00 0.00 0.00 0.00 0.00 0.00 0.00 0.00 0.00 0.00 0.00 0.00 0.00 0.00 0.00 0.00 0.00 -0.00 -0.00 -0.00 -0.00 -0.00 -0.00 0.00 0.00 -0.00 -0.00 -0.00 -0.01 -0.01 -0.01 -0.01 -0.01 -0.01 -0.02 -0.02 -0.01 -0.00 -0.00 -0.01 -0.04 -0.05 -0.05 -0.08 -0.10 -0.10 -0.10 -0.09 -0.00 -0.00 0.13 0.09 0.06 0.06 0.02 0.09 0.32 0.49 0.49 0.73 0.31 0.28 0.28 0.33 0.32 0.49 0.49 0.43 0.23 0.23 0.00 0.00 0.00 0.00 0.00 0.00 0.00 0.00 0.00 -0.08 -0.17 -0.07 -0.07 -0.01 0.03 0.00 0.00 0.00 0.00 0.00 0.00 0.00 -0.00 -0.00 0.00 0.00
0.00 0.00 0.00 0.00 0.00 0.00 0.00 0.00 0.00 0.00 0.00 0.00 0.00 0.00 0.00 0.00 0.00 0.00 0.00 0.00 0.00 0.00 0.00 0.00 0.00 0.00 -0.00 -0.00 0.00 0.00 0.00 0.00 0.00 0.00 -0.00 -0.00 -0.00 -0.01 -0.01 -0.01 -0.01 -0.01 -0.01 0.00 -0.00 -0.00 -0.01 -0.03 -0.04 -0.04 -0.06 -0.10 -0.11 -0.11 -0.10 -0.09 -0.09 0.03 0.18 0.14 0.14 0.12 0.07 0.20 0.79 0.79 0.99 0.83 0.32 0.32 0.23 0.33 0.25 0.25 0.30 0.18 0.18 0.06 0.01 0.03 0.03 0.00 0.00 0.00 0.00 0.00 -0.08 -0.20 -0.21 -0.21 -0.01 0.01 0.04 0.04 0.00 0.00 0.00 0.00 0.00 0.00 0.00 0.00 0.00
0.00 0.00 0.00 0.00 0.00 0.00 0.00 0.00 0.00 0.00 0.00 0.00 0.00 0.00 0.00 0.00 0.00 0.00 0.00 0.00 0.00 0.00 0.00 -0.00 0.00 0.00 0.00 0.00 0.00 0.00 0.00 0.00 0.00 0.00 -0.00 -0.01 -0.01 -0.01 -0.01 -0.01 -0.01 -0.01 -0.00 0.00 -0.00 -0.00 -0.01 -0.02 -0.03 -0.03 -0.01 -0.09 -0.11 -0.11 -0.10 -0.10 -0.10 -0.05 0.07 0.27 0.27 0.30 0.12 0.15 0.30 0.30 0.69 0.86 0.61 0.61 0.44 0.39 0.17 0.17 0.15 0.09 0.09 0.11 0.07 0.04 0.04 0.05 0.01 0.00 0.00 0.00 -0.00 -0.19 -0.22 -0.22 -0.08 0.00 0.04 0.04 0.06 0.08 0.08 0.00 0.00 0.00 0.00 -0.00 0.00
0.00 0.00 0.00 0.00 0.00 0.00 0.00 0.00 0.00 0.00 0.00 0.00 0.00 0.00 0.00 0.00 0.00 0.00 0.00 0.00 0.00 0.00 0.00 0.00 0.00 0.00 0.00 0.00 0.00 0.00 0.00 0.00 0.00 0.00 -0.00 -0.01 -0.01 -0.01 -0.01 -0.00 -0.00 -0.01 -0.00 0.00 -0.00 -0.00 -0.01 -0.02 -0.01 -0.01 0.01 -0.08 -0.10 -0.10 -0.11 -0.12 -0.12 -0.07 -0.01 0.12 0.12 0.29 0.24 0.24 0.23 0.23 0.36 0.64 0.85 0.85 0.76 0.62 0.15 0.15 0.05 0.04 0.04 0.01 0.07 0.08 0.08 0.04 0.08 0.06 0.00 0.00 -0.00 -0.07 -0.21 -0.21 -0.12 -0.00 0.02 0.02 0.09 0.14 0.14 0.11 0.03 0.06 0.06 -0.00 0.00
0.00 0.00 0.00 0.00 0.00 0.00 0.00 0.00 0.00 0.00 0.00 0.00 0.00 0.00 0.00 0.00 0.00 0.00 0.00 0.00 0.00 -0.00 0.00 -0.00 0.00 0.00 0.00 0.00 0.00 0.00 0.00 0.00 0.00 0.00 0.00 -0.01 -0.01 -0.01 -0.01 -0.01 -0.01 -0.00 -0.00 -0.00 -0.00 -0.00 -0.01 -0.02 0.00 0.00 0.02 -0.02 -0.08 -0.08 -0.09 -0.08 -0.08 -0.08 -0.03 0.05 0.05 0.12 0.21 0.30 0.26 0.26 0.23 0.33 0.58 0.58 0.78 0.54 0.37 0.37 0.17 0.25 0.25 0.03 0.00 0.10 0.10 0.03 0.06 0.11 0.04 0.04 -0.00 -0.10 -0.09 -0.09 -0.11 -0.10 0.01 0.01 0.06 0.07 0.07 0.14 0.09 0.05 0.05 0.02 -0.00
0.00 0.00 0.00 0.00 0.00 0.00 0.00 0.00 0.00 0.00 0.00 0.00 0.00 0.00 0.00 0.00 0.00 0.00 0.00 0.00 0.00 0.00 0.00 -0.02 0.00 0.00 0.00 0.00 0.00 0.00 0.00 0.00 0.00 0.00 0.00 -0.00 -0.00 -0.01 -0.01 -0.01 -0.01 -0.00 -0.00 -0.00 -0.00 -0.00 -0.00 -0.01 -0.02 -0.02 0.01 0.00 -0.07 -0.07 -0.08 -0.07 -0.07 -0.06 -0.05 -0.02 -0.02 -0.03 0.17 0.32 0.28 0.28 0.21 0.23 0.42 0.42 0.56 0.52 0.43 0.43 0.40 0.38 0.38 0.20 0.02 0.01 0.01 0.01 0.04 0.07 0.07 0.07 0.03 -0.13 -0.11 -0.11 -0.09 -0.09 -0.05 -0.05 0.01 0.00 0.00 0.05 0.14 0.11 0.11 0.02 0.00
0.00 0.00 0.00 0.00 0.00 0.00 0.00 0.00 0.00 0.00 0.00 0.00 0.00 0.00 0.00 0.00 0.00 -0.00 0.00 0.00 0.00 -0.00 -0.00 -0.03 0.00 0.00 0.00 0.00 0.00 0.00 0.00 0.00 0.00 0.00 0.00 -0.00 -0.00 -0.00 -0.01 -0.00 -0.00 -0.00 -0.00 -0.00 -0.00 -0.00 0.00 -0.01 -0.01 -0.01 -0.02 0.01 -0.01 -0.01 -0.07 -0.06 -0.06 -0.05 -0.05 -0.04 -0.04 -0.04 0.01 0.32 0.32 0.32 0.21 0.20 0.39 0.39 0.45 0.41 0.51 0.51 0.53 0.31 0.31 0.25 0.04 0.03 0.03 0.00 0.03 0.05 0.07 0.07 0.04 -0.00 -0.11 -0.11 -0.02 -0.06 -0.07 -0.07 -0.02 0.00 0.00 0.00 0.05 0.05 0.05 0.08 0.01
0.00 0.00 0.00 0.00 0.00 0.00 0.00 0.00 0.00 0.00 0.00 0.00 0.00 0.00 0.00 -0.00 -0.00 -0.00 -0.00 -0.00 -0.00 -0.00 -0.01 -0.05 -0.00 -0.00 0.00 0.00 0.00 0.00 0.00 0.00 0.00 0.00 -0.00 0.00 0.00 -0.00 -0.00 -0.00 -0.00 -0.00 -0.00 0.00 -0.00 -0.00 0.00 -0.00 -0.00 -0.00 -0.01 -0.01 -0.00 -0.00 -0.06 -0.05 -0.05 -0.05 -0.04 -0.04 -0.04 -0.05 -0.03 0.18 0.22 0.22 0.19 0.16 0.22 0.22 0.31 0.26 0.46 0.46 0.46 0.22 0.22 0.20 0.16 0.07 0.07 0.01 0.00 0.05 0.04 0.04 0.05 0.02 -0.09 -0.09 -0.02 -0.02 -0.06 -0.06 -0.03 -0.00 -0.00 0.00 0.01 0.07 0.07 0.10 0.09
0.00 0.00 0.00 0.00 0.00 0.00 0.00 0.00 0.00 0.00 0.00 0.00 0.00 0.00 0.00 0.00 0.00 -0.00 -0.00 -0.00 -0.00 -0.00 -0.02 -0.05 -0.00 -0.00 0.00 0.00 0.00 0.00 0.00 0.00 0.00 0.00 0.00 0.00 0.00 0.00 -0.00 -0.00 -0.00 -0.00 -0.00 0.00 0.00 0.00 0.00 0.00 -0.00 -0.00 -0.01 -0.03 -0.01 -0.01 -0.03 -0.08 -0.08 -0.09 -0.06 -0.05 -0.05 -0.05 -0.05 -0.00 0.09 0.09 0.11 0.23 0.17 0.17 0.34 0.27 0.23 0.23 0.33 0.14 0.14 0.13 0.13 0.08 0.08 0.03 0.00 0.02 0.04 0.04 0.05 0.03 -0.07 -0.07 -0.03 -0.03 -0.02 -0.02 -0.04 -0.01 -0.01 0.00 0.03 0.09 0.09 0.09 0.09
0.00 0.00 0.00 0.00 0.00 0.00 0.00 0.00 0.00 0.00 0.00 0.00 0.00 0.00 0.00 0.00 0.00 -0.00 -0.00 -0.00 -0.00 -0.00 -0.02 -0.06 -0.00 -0.00 0.00 0.00 0.00 0.00 0.00 0.00 0.00 0.00 0.00 0.00 0.00 0.00 0.00 -0.00 -0.00 -0.00 -0.00 0.00 0.00 0.00 0.00 0.00 0.00 0.00 -0.00 -0.01 -0.03 -0.03 -0.03 -0.06 -0.06 -0.09 -0.08 -0.07 -0.07 -0.06 -0.05 -0.05 0.02 0.02 0.05 0.16 0.19 0.19 0.16 0.34 0.26 0.26 0.19 0.12 0.12 0.05 0.09 0.05 0.05 0.04 0.00 0.00 0.03 0.03 0.05 0.04 -0.03 -0.03 -0.05 -0.04 -0.02 -0.02 -0.03 -0.01 -0.01 0.00 0.03 0.07 0.07 0.08 0.06
0.00 0.00 0.00 0.00 0.00 0.00 0.00 0.00 0.00 0.00 0.00 0.00 0.00 0.00 0.00 0.00 0.00 -0.00 -0.00 -0.00 -0.00 -0.00 -0.01 -0.05 -0.02 -0.02 0.00 0.00 0.00 0.00 0.00 0.00 0.00 0.00 0.00 0.00 0.00 -0.00 -0.00 -0.00 -0.00 -0.00 -0.00 -0.00 0.00 0.00 0.00 0.00 0.00 0.00 -0.00 -0.01 -0.03 -0.03 -0.02 -0.03 -0.03 -0.05 -0.07 -0.07 -0.07 -0.06 -0.05 -0.05 -0.05 -0.05 0.04 0.06 0.12 0.12 0.13 0.19 0.27 0.27 0.18 0.09 0.09 0.05 -0.00 0.03 0.03 0.02 0.00 0.00 0.01 0.01 0.03 0.02 -0.01 -0.01 -0.04 -0.04 -0.04 -0.04 -0.02 -0.01 -0.01 0.00 0.00 0.03 0.03 0.08 0.07
0.00 0.00 0.00 0.00 0.00 0.00 0.00 0.00 0.00 0.00 0.00 0.00 0.00 0.00 0.00 0.00 0.00 -0.00 -0.00 -0.00 -0.00 -0.00 -0.01 -0.06 -0.01 -0.01 0.00 0.00 0.00 0.00 0.00 0.00 0.00 0.00 0.00 0.00 0.00 -0.00 -0.00 -0.00 -0.00 -0.00 -0.00 -0.00 0.00 0.00 0.00 0.00 0.00 0.00 -0.00 -0.00 -0.01 -0.01 -0.02 -0.02 -0.02 -0.03 -0.05 -0.07 -0.07 -0.07 -0.06 -0.04 -0.04 -0.04 -0.02 -0.00 -0.01 -0.01 0.06 0.13 0.18 0.18 0.14 0.08 0.08 0.08 -0.03 0.01 0.01 0.01 0.01 0.00 0.00 0.00 0.02 0.01 0.02 0.02 -0.04 -0.02 -0.02 -0.02 -0.04 -0.01 -0.01 -0.00 0.00 0.00 0.00 0.05 0.08
0.00 0.00 0.00 0.00 0.00 0.00 0.00 0.00 0.00 0.00 0.00 0.00 0.00 0.00 0.00 0.00 0.00 -0.00 -0.00 -0.00 -0.00 -0.00 -0.01 -0.05 -0.00 -0.00 0.00 0.00 0.00 0.00 0.00 0.00 0.00 0.00 0.00 -0.00 -0.00 -0.00 -0.00 -0.00 -0.00 -0.00 -0.00 -0.00 -0.00 -0.00 0.00 0.00 0.00 0.00 0.00 -0.00 -0.01 -0.01 -0.01 -0.01 -0.01 -0.02 -0.04 -0.04 -0.04 -0.07 -0.06 -0.04 -0.04 -0.04 -0.04 -0.06 -0.05 -0.05 -0.08 0.06 0.13 0.13 0.12 0.09 0.09 0.06 0.06 0.02 0.02 0.01 0.00 0.00 0.00 0.00 0.01 -0.03 0.01 0.01 0.03 -0.00 0.01 0.01 -0.02 0.01 0.01 0.00 0.00 0.00 0.00 0.11 0.06
0.00 0.00 0.00 0.00 0.00 0.00 0.00 0.00 0.00 0.00 0.00 0.00 0.00 0.00 0.00 0.00 0.00 0.00 -0.00 -0.00 -0.00 -0.00 -0.01 -0.04 -0.00 -0.00 0.00 0.00 0.00 0.00 0.00 0.00 0.00 0.00 0.00 0.00 0.00 -0.00 -0.00 -0.00 -0.00 -0.00 -0.00 -0.00 -0.00 -0.00 -0.00 0.00 0.00 0.00 0.00 -0.00 -0.00 -0.00 -0.01 -0.01 -0.01 -0.01 -0.02 -0.03 -0.03 -0.05 -0.07 -0.05 -0.05 -0.05 -0.07 -0.09 -0.09 -0.09 -0.11 -0.05 0.05 0.05 0.11 0.09 0.09 0.06 0.02 0.01 0.01 0.01 0.00 0.00 0.00 0.00 0.00 0.00 -0.01 -0.01 0.02 0.02 0.02 0.02 0.03 0.04 0.04 0.00 0.00 0.00 0.00 0.07 0.03
0.00 0.00 0.00 0.00 0.00 0.00 0.00 0.00 0.00 0.00 0.00 0.00 0.00 0.00 0.00 0.00 0.00 0.00 -0.00 -0.00 -0.00 -0.00 -0.01 -0.04 -0.00 -0.00 0.00 0.00 0.00 0.00 -0.00 -0.00 -0.00 -0.00 -0.00 -0.00 -0.00 -0.00 -0.00 -0.00 -0.00 -0.00 -0.00 0.00 -0.00 -0.00 0.00 -0.00 0.00 0.00 0.00 0.00 -0.00 -0.00 -0.00 -0.01 -0.01 -0.01 -0.01 -0.03 -0.03 -0.05 -0.08 -0.07 -0.06 -0.06 -0.09 -0.11 -0.11 -0.11 -0.13 -0.12 -0.04 -0.04 0.04 0.07 0.07 0.05 0.04 0.01 0.01 0.01 0.00 0.01 -0.01 -0.01 -0.05 -0.03 -0.08 -0.08 0.01 0.01 -0.03 -0.03 0.04 0.05 0.05 0.02 0.00 0.00 0.00 0.00 0.02
0.00 0.00 0.00 0.00 0.00 0.00 0.00 0.00 0.00 0.00 0.00 0.00 0.00 0.00 0.00 0.00 0.00 0.00 0.00 -0.00 -0.00 -0.00 -0.01 -0.04 -0.00 -0.00 0.00 0.00 0.00 0.00 -0.00 -0.00 -0.00 -0.00 -0.00 -0.00 -0.00 -0.00 -0.00 -0.00 -0.00 -0.00 -0.00 0.00 -0.00 -0.00 -0.00 -0.00 0.00 0.00 0.00 0.00 -0.00 -0.00 -0.00 -0.00 -0.00 -0.01 -0.01 -0.02 -0.02 -0.04 -0.07 -0.08 -0.11 -0.11 -0.12 -0.12 -0.13 -0.13 -0.16 -0.14 -0.12 -0.12 -0.09 -0.02 -0.02 0.06 0.05 0.06 0.06 0.03 0.03 0.01 -0.03 -0.03 -0.05 -0.04 -0.07 -0.07 -0.15 -0.01 -0.04 -0.04 -0.01 0.08 0.08 0.04 0.00 0.00 0.00 0.00 0.00
0.00 0.00 0.00 0.00 0.00 0.00 0.00 0.00 0.00 0.00 0.00 0.00 0.00 0.00 0.00 0.00 0.00 0.00 0.00 -0.00 -0.00 -0.00 -0.01 -0.01 -0.00 -0.00 0.00 0.00 0.00 0.00 -0.00 -0.00 -0.00 -0.00 -0.00 -0.00 -0.00 -0.00 -0.00 -0.00 -0.00 -0.00 -0.00 -0.00 0.00 0.00 0.00 -0.00 -0.00 -0.00 0.00 0.00 0.00 0.00 -0.00 -0.00 -0.00 -0.01 -0.01 -0.01 -0.01 -0.03 -0.07 -0.09 -0.13 -0.13 -0.14 -0.15 -0.14 -0.14 -0.18 -0.16 -0.13 -0.13 -0.12 -0.08 -0.08 -0.01 0.06 0.06 0.06 0.06 0.03 0.05 -0.02 -0.02 -0.05 -0.06 -0.06 -0.06 -0.13 -0.09 -0.06 -0.06 -0.08 -0.07 -0.07 0.08 0.03 0.00 0.00 0.00 0.00
0.00 0.00 0.00 0.00 0.00 0.00 0.00 0.00 0.00 0.00 0.00 0.00 0.00 0.00 0.00 0.00 0.00 0.00 0.00 -0.00 -0.00 0.00 -0.01 -0.01 -0.00 -0.00 0.00 0.00 0.00 0.00 -0.00 -0.00 -0.00 -0.00 -0.00 -0.00 -0.00 -0.00 -0.00 -0.00 -0.00 -0.00 -0.00 -0.00 -0.00 -0.00 -0.00 -0.00 -0.00 -0.00 -0.00 -0.00 -0.00 -0.00 -0.00 -0.00 -0.00 -0.00 -0.01 -0.01 -0.01 -0.03 -0.05 -0.09 -0.15 -0.15 -0.18 -0.19 -0.19 -0.19 -0.19 -0.16 -0.15 -0.15 -0.15 -0.11 -0.11 -0.05 -0.01 0.03 0.03 0.04 0.03 0.06 0.05 0.05 -0.05 -0.03 -0.05 -0.05 -0.13 -0.11 -0.06 -0.06 -0.07 -0.05 -0.05 0.10 0.09 0.07 0.07 0.00 0.00
0.00 0.00 0.00 0.00 0.00 0.00 0.00 0.00 0.00 0.00 0.00 0.00 0.00 0.00 0.00 0.00 0.00 0.00 0.00 -0.00 -0.00 -0.00 -0.01 -0.00 0.00 0.00 0.00 0.00 -0.00 -0.00 -0.00 -0.00 -0.00 -0.00 -0.00 -0.00 -0.00 -0.00 -0.00 -0.00 -0.00 -0.01 -0.00 -0.00 -0.00 -0.00 -0.00 -0.00 -0.00 -0.00 -0.00 -0.00 -0.00 -0.00 -0.00 -0.00 -0.00 -0.00 -0.00 -0.01 -0.01 -0.02 -0.04 -0.07 -0.11 -0.11 -0.19 -0.22 -0.22 -0.22 -0.22 -0.18 -0.16 -0.16 -0.16 -0.15 -0.15 -0.09 -0.03 0.00 0.00 0.02 0.04 0.05 0.05 0.05 0.04 0.00 -0.02 -0.02 -0.01 -0.09 -0.05 -0.05 -0.00 -0.00 -0.00 -0.04 0.11 0.10 0.10 0.05 0.00
0.00 0.00 0.00 0.00 0.00 0.00 0.00 0.00 0.00 0.00 0.00 0.00 0.00 0.00 0.00 0.00 0.00 0.00 0.00 0.00 0.00 -0.00 -0.00 0.00 0.00 0.00 0.00 0.00 -0.00 -0.00 -0.00 -0.00 -0.00 -0.00 -0.00 -0.00 -0.00 -0.00 -0.00 -0.01 -0.01 -0.01 -0.01 -0.01 -0.01 -0.01 -0.00 -0.00 -0.00 -0.00 0.00 -0.00 -0.00 -0.00 0.00 -0.00 -0.00 0.00 -0.00 -0.00 -0.00 -0.03 -0.03 -0.04 -0.06 -0.06 -0.10 -0.20 -0.26 -0.26 -0.33 -0.30 -0.27 -0.27 -0.16 -0.15 -0.15 -0.14 -0.09 -0.07 -0.07 -0.03 0.02 0.03 0.03 0.03 0.02 0.01 0.00 0.00 0.03 0.03 0.04 0.04 -0.05 -0.06 -0.06 -0.00 -0.00 0.01 0.01 0.08 0.08
0.00 0.00 0.00 0.00 0.00 0.00 0.00 0.00 0.00 0.00 0.00 0.00 0.00 0.00 0.00 0.00 0.00 0.00 0.00 0.00 0.00 -0.00 0.00 0.00 0.00 0.00 0.00 0.00 -0.00 -0.00 -0.00 -0.00 -0.00 -0.00 -0.00 -0.00 -0.00 -0.00 -0.00 -0.01 -0.01 -0.01 -0.01 -0.01 -0.01 -0.01 -0.00 -0.00 -0.00 -0.00 0.00 -0.00 -0.00 -0.00 0.00 0.00 0.00 0.00 -0.00 -0.00 -0.00 -0.01 -0.04 -0.04 -0.06 -0.06 -0.08 -0.15 -0.23 -0.23 -0.30 -0.29 -0.27 -0.27 -0.25 -0.17 -0.17 -0.14 -0.13 -0.11 -0.11 -0.06 -0.03 0.03 0.05 0.05 0.04 0.03 -0.02 -0.02 0.03 0.03 0.01 0.01 -0.01 -0.05 -0.05 -0.01 -0.00 0.00 0.00 0.02 0.07
0.00 0.00 0.00 0.00 0.00 0.00 0.00 0.00 0.00 0.00 0.00 0.00 0.00 0.00 0.00 0.00 0.00 0.00 0.00 -0.00 -0.00 0.00 0.00 0.00 0.00 0.00 0.00 0.00 -0.00 -0.00 -0.00 -0.00 -0.00 -0.00 -0.00 -0.00 -0.00 -0.00 -0.00 -0.01 -0.01 -0.01 -0.01 -0.01 -0.01 -0.01 -0.01 -0.00 -0.00 -0.00 -0.00 -0.00 0.00 0.00 0.00 0.00 0.00 0.00 0.00 0.00 0.00 -0.00 -0.03 -0.05 -0.04 -0.04 -0.07 -0.13 -0.20 -0.20 -0.25 -0.31 -0.28 -0.28 -0.26 -0.23 -0.23 -0.16 -0.14 -0.16 -0.16 -0.10 -0.18 -0.20 0.04 0.04 0.06 0.04 -0.02 -0.02 -0.04 0.07 0.03 0.03 0.02 0.00 0.00 -0.01 0.00 0.00 0.00 0.01 0.03
0.00 0.00 0.00 0.00 0.00 0.00 0.00 0.00 0.00 0.00 0.00 0.00 0.00 0.00 0.00 0.00 0.00 0.00 0.00 -0.00 -0.00 0.00 0.00 0.00 0.00 0.00 0.00 0.00 -0.00 -0.00 -0.00 -0.00 -0.00 -0.00 -0.00 -0.00 -0.00 -0.00 -0.01 -0.01 -0.01 -0.01 -0.01 -0.01 -0.01 -0.01 -0.01 -0.01 -0.00 -0.00 -0.00 -0.00 0.00 0.00 0.00 0.00 0.00 0.00 0.00 0.00 0.00 0.00 -0.00 -0.04 -0.05 -0.05 -0.08 -0.12 -0.17 -0.17 -0.25 -0.29 -0.32 -0.32 -0.33 -0.27 -0.27 -0.24 -0.22 -0.21 -0.21 -0.17 -0.25 -0.21 0.01 0.01 0.05 0.04 0.02 0.02 -0.06 -0.08 0.06 0.06 0.05 0.04 0.04 -0.01 -0.01 0.01 0.01 0.01 0.00
0.00 0.00 0.00 0.00 0.00 0.00 0.00 0.00 0.00 0.00 0.00 0.00 0.00 0.00 0.00 0.00 0.00 0.00 -0.00 -0.00 -0.00 0.00 0.00 0.00 0.00 0.00 0.00 0.00 -0.00 -0.00 0.00 0.00 0.00 0.00 -0.00 -0.00 -0.00 -0.00 -0.01 -0.01 -0.01 -0.01 -0.01 -0.01 -0.01 -0.01 -0.01 -0.01 -0.00 -0.00 -0.00 -0.00 0.00 0.00 0.00 0.00 0.00 0.00 0.00 0.00 0.00 0.00 0.00 -0.03 -0.04 -0.04 -0.06 -0.12 -0.14 -0.14 -0.20 -0.30 -0.29 -0.29 -0.32 -0.37 -0.37 -0.31 -0.34 -0.31 -0.31 -0.27 -0.29 -0.30 -0.21 -0.21 0.02 0.02 0.05 0.05 0.01 -0.07 -0.06 -0.06 0.06 0.04 0.04 0.01 -0.01 0.02 0.02 0.03 0.01
0.00 0.00 0.00 0.00 0.00 0.00 0.00 0.00 0.00 0.00 0.00 0.00 0.00 0.00 0.00 0.00 0.00 0.00 0.00 0.00 0.00 0.00 -0.00 -0.00 0.00 0.00 0.00 0.00 0.00 0.00 0.00 0.00 0.00 0.00 0.00 -0.00 -0.00 -0.00 -0.01 -0.01 -0.01 -0.00 -0.01 -0.01 -0.01 -0.01 -0.01 -0.01 -0.00 -0.00 -0.00 -0.00 -0.00 -0.00 0.00 0.00 0.00 0.00 0.00 0.00 0.00 0.00 0.00 0.00 -0.04 -0.04 -0.04 -0.07 -0.10 -0.10 -0.17 -0.28 -0.32 -0.32 -0.32 -0.36 -0.36 -0.39 -0.39 -0.45 -0.45 -0.39 -0.30 -0.42 -0.31 -0.31 -0.18 -0.04 0.03 0.03 0.04 0.01 -0.03 -0.03 -0.05 0.08 0.08 0.05 0.02 -0.02 -0.02 0.04 0.04
0.00 0.00 0.00 0.00 0.00 0.00 0.00 0.00 0.00 0.00 0.00 0.00 0.00 0.00 0.00 0.00 0.00 -0.00 0.00 0.00 0.00 0.00 0.00 0.00 0.00 0.00 0.00 0.00 0.00 0.00 0.00 0.00 0.00 0.00 0.00 -0.00 -0.00 -0.00 -0.01 -0.00 -0.00 -0.00 -0.00 -0.00 -0.01 -0.01 -0.00 -0.00 -0.00 -0.00 -0.00 -0.00 -0.00 -0.00 -0.00 0.00 0.00 0.00 0.00 0.00 0.00 0.00 0.00 0.00 -0.03 -0.03 -0.04 -0.04 -0.07 -0.07 -0.12 -0.18 -0.29 -0.29 -0.28 -0.31 -0.31 -0.37 -0.36 -0.39 -0.39 -0.48 -0.43 -0.42 -0.43 -0.43 -0.27 -0.26 -0.03 -0.03 0.02 -0.00 0.03 0.03 0.01 0.02 0.02 0.08 0.06 0.05 0.05 -0.01 0.06
0.00 0.00 0.00 0.00 0.00 0.00 0.00 0.00 0.00 0.00 0.00 0.00 0.00 0.00 0.00 0.00 0.00 0.00 -0.00 -0.00 -0.00 -0.00 -0.00 0.00 0.00 0.00 0.00 0.00 0.00 0.00 0.00 0.00 0.00 0.00 0.00 -0.00 -0.00 -0.01 -0.00 -0.00 -0.00 -0.00 -0.00 -0.00 -0.00 -0.00 -0.00 -0.00 -0.00 -0.00 -0.00 -0.00 -0.00 -0.00 -0.00 0.00 0.00 0.00 0.00 0.00 0.00 0.00 0.00 0.00 -0.01 -0.01 -0.03 -0.04 -0.05 -0.05 -0.09 -0.13 -0.18 -0.18 -0.22 -0.27 -0.27 -0.31 -0.35 -0.37 -0.37 -0.39 -0.49 -0.49 -0.41 -0.41 -0.42 -0.42 -0.24 -0.24 -0.07 -0.05 -0.01 -0.01 0.02 0.02 0.02 0.03 0.07 0.06 0.06 0.07 0.02
0.00 0.00 0.00 0.00 0.00 0.00 0.00 0.00 0.00 0.00 0.00 0.00 0.00 0.00 0.00 0.00 0.00 0.00 0.00 -0.00 -0.00 0.00 0.00 0.00 0.00 0.00 0.00 0.00 0.00 0.00 0.00 0.00 0.00 0.00 -0.00 -0.00 -0.00 -0.00 -0.00 -0.00 -0.00 -0.00 -0.00 -0.00 -0.00 -0.00 -0.00 -0.00 -0.00 -0.00 -0.00 -0.00 -0.00 -0.00 -0.00 -0.00 -0.00 -0.00 0.00 0.00 0.00 0.00 0.00 -0.00 -0.01 -0.01 -0.02 -0.04 -0.05 -0.05 -0.06 -0.10 -0.15 -0.15 -0.17 -0.25 -0.25 -0.29 -0.34 -0.34 -0.34 -0.35 -0.40 -0.43 -0.46 -0.46 -0.46 -0.46 -0.41 -0.41 -0.21 -0.16 -0.07 -0.07 0.00 0.03 0.03 0.03 0.03 0.03 0.03 0.05 0.05
0.00 0.00 0.00 0.00 0.00 0.00 0.00 0.00 0.00 0.00 0.00 0.00 0.00 0.00 0.00 0.00 0.00 0.00 0.00 0.00 0.00 0.00 0.00 0.00 0.00 0.00 0.00 0.00 0.00 0.00 0.00 0.00 0.00 0.00 -0.00 -0.00 -0.00 -0.00 -0.00 -0.00 -0.00 -0.00 -0.00 -0.00 -0.00 -0.00 -0.00 -0.00 -0.00 -0.00 -0.00 -0.00 -0.00 -0.00 -0.00 -0.00 -0.00 0.00 0.00 0.00 0.00 0.00 0.00 0.00 -0.03 -0.03 -0.06 -0.04 -0.06 -0.06 -0.07 -0.08 -0.14 -0.14 -0.18 -0.24 -0.24 -0.31 -0.33 -0.35 -0.35 -0.31 -0.36 -0.32 -0.42 -0.42 -0.43 -0.44 -0.45 -0.45 -0.40 -0.35 -0.14 -0.14 -0.05 -0.06 -0.06 0.03 0.03 0.03 0.03 0.04 0.04
0.00 0.00 0.00 0.00 0.00 0.00 0.00 0.00 0.00 0.00 0.00 0.00 0.00 0.00 0.00 0.00 0.00 0.00 0.00 0.00 0.00 0.00 0.00 0.00 0.00 0.00 0.00 0.00 0.00 0.00 0.00 0.00 0.00 0.00 -0.00 -0.00 -0.00 -0.00 -0.00 -0.00 -0.00 -0.00 -0.00 0.00 0.00 0.00 0.00 0.00 0.00 0.00 -0.00 -0.00 -0.00 -0.00 -0.00 -0.00 -0.00 -0.00 0.00 0.00 0.00 0.00 0.00 0.00 -0.03 -0.03 -0.07 -0.08 -0.07 -0.07 -0.07 -0.09 -0.14 -0.14 -0.16 -0.20 -0.20 -0.28 -0.29 -0.32 -0.32 -0.29 -0.27 -0.24 -0.33 -0.33 -0.36 -0.37 -0.46 -0.46 -0.42 -0.41 -0.30 -0.30 -0.17 -0.15 -0.15 -0.06 0.03 0.04 0.04 0.03 0.05
0.00 0.00 0.00 0.00 0.00 0.00 0.00 0.00 0.00 0.00 0.00 0.00 0.00 0.00 0.00 0.00 0.00 0.00 0.00 0.00 0.00 0.00 0.00 0.00 0.00 0.00 0.00 0.00 0.00 0.00 0.00 0.00 -0.00 -0.00 -0.00 -0.00 -0.00 0.00 0.00 0.00 0.00 -0.00 -0.00 0.00 0.00 0.00 0.00 0.00 0.00 0.00 -0.00 0.00 0.00 0.00 0.00 -0.00 -0.00 0.00 0.00 0.00 0.00 0.00 0.00 0.00 0.00 0.00 -0.07 -0.09 -0.07 -0.07 -0.07 -0.08 -0.08 -0.08 -0.13 -0.17 -0.17 -0.21 -0.27 -0.28 -0.28 -0.31 -0.23 -0.19 -0.21 -0.21 -0.32 -0.33 -0.37 -0.37 -0.49 -0.45 -0.37 -0.37 -0.27 -0.23 -0.23 -0.13 -0.04 0.04 0.04 0.04 0.04
0.00 0.00 0.00 0.00 0.00 0.00 0.00 0.00 0.00 0.00 0.00 0.00 0.00 0.00 0.00 0.00 0.00 0.00 0.00 0.00 0.00 0.00 0.00 0.00 0.00 0.00 0.00 0.00 0.00 0.00 0.00 0.00 -0.00 -0.00 0.00 0.00 0.00 0.00 0.00 0.00 0.00 0.00 0.00 0.00 0.00 0.00 0.00 0.00 0.00 0.00 0.00 0.00 0.00 0.00 0.00 0.00 0.00 0.00 0.00 0.00 0.00 0.00 0.00 0.00 0.00 0.00 0.00 -0.08 -0.08 -0.08 -0.06 -0.08 -0.06 -0.06 -0.07 -0.13 -0.13 -0.17 -0.16 -0.25 -0.25 -0.28 -0.29 -0.22 -0.20 -0.20 -0.20 -0.28 -0.34 -0.34 -0.42 -0.46 -0.42 -0.42 -0.38 -0.37 -0.37 -0.25 -0.11 -0.09 -0.09 0.04 0.04
0.00 0.00 0.00 0.00 0.00 0.00 0.00 0.00 0.00 0.00 0.00 0.00 0.00 0.00 0.00 0.00 0.00 0.00 0.00 0.00 0.00 0.00 0.00 0.00 0.00 0.00 0.00 0.00 0.00 0.00 0.00 0.00 0.00 0.00 0.00 0.00 0.00 0.00 0.00 0.00 0.00 0.00 0.00 0.00 0.00 0.00 0.00 0.00 0.00 0.00 0.00 0.00 0.00 0.00 0.00 0.00 0.00 0.00 0.00 0.00 0.00 0.00 0.00 0.00 0.00 0.00 0.00 -0.03 -0.05 -0.05 -0.07 -0.07 -0.06 -0.06 -0.07 -0.07 -0.07 -0.14 -0.14 -0.17 -0.17 -0.26 -0.31 -0.30 -0.24 -0.24 -0.20 -0.27 -0.32 -0.32 -0.36 -0.43 -0.46 -0.46 -0.41 -0.40 -0.40 -0.38 -0.24 -0.24 -0.24 -0.08 0.05
0.00 0.00 0.00 0.00 0.00 0.00 0.00 0.00 0.00 0.00 0.00 0.00 0.00 0.00 0.00 0.00 0.00 0.00 0.00 0.00 0.00 0.00 0.00 0.00 0.00 0.00 0.00 0.00 0.00 0.00 0.00 0.00 0.00 0.00 0.00 0.00 0.00 0.00 0.00 0.00 0.00 0.00 0.00 0.00 0.00 0.00 0.00 0.00 0.00 0.00 0.00 0.00 0.00 0.00 0.00 0.00 0.00 0.00 -0.00 -0.00 -0.00 -0.00 0.00 0.00 0.00 0.00 0.00 0.00 -0.02 -0.02 -0.05 -0.07 -0.08 -0.08 -0.07 -0.08 -0.08 -0.12 -0.17 -0.19 -0.19 -0.20 -0.25 -0.27 -0.29 -0.29 -0.25 -0.25 -0.29 -0.29 -0.36 -0.39 -0.45 -0.45 -0.46 -0.39 -0.39 -0.37 -0.36 -0.28 -0.28 -0.23 -0.07
0.00 0.00 0.00 0.00 0.00 0.00 0.00 0.00 0.00 0.00 0.00 0.00 0.00 0.00 0.00 0.00 0.00 0.00 0.00 0.00 0.00 0.00 0.00 0.00 0.00 0.00 0.00 0.00 0.00 0.00 0.00 0.00 0.00 0.00 0.00 0.00 0.00 0.00 0.00 0.00 0.00 0.00 0.00 0.00 0.00 0.00 0.00 0.00 0.00 0.00 0.00 0.00 0.00 0.00 0.00 0.00 0.00 0.00 -0.00 -0.00 -0.00 -0.00 -0.01 -0.01 0.00 0.00 0.00 -0.00 -0.00 -0.00 -0.03 -0.06 -0.06 -0.06 -0.07 -0.09 -0.09 -0.11 -0.15 -0.19 -0.19 -0.23 -0.22 -0.26 -0.26 -0.26 -0.27 -0.23 -0.26 -0.26 -0.30 -0.35 -0.40 -0.40 -0.43 -0.41 -0.41 -0.38 -0.35 -0.36 -0.36 -0.28 -0.20
0.00 0.00 0.00 0.00 0.00 0.00 0.00 0.00 0.00 0.00 0.00 0.00 0.00 0.00 0.00 0.00 0.00 0.00 0.00 0.00 0.00 0.00 0.00 0.00 0.00 0.00 0.00 0.00 0.00 0.00 0.00 0.00 0.00 0.00 0.00 0.00 0.00 0.00 0.00 0.00 0.00 0.00 0.00 0.00 0.00 0.00 0.00 0.00 0.00 0.00 0.00 0.00 0.00 0.00 0.00 0.00 0.00 0.00 -0.00 -0.00 -0.00 -0.00 -0.00 -0.00 -0.02 -0.02 -0.01 -0.00 -0.00 -0.00 -0.00 -0.06 -0.06 -0.06 -0.07 -0.10 -0.10 -0.10 -0.15 -0.17 -0.17 -0.20 -0.22 -0.23 -0.27 -0.27 -0.26 -0.28 -0.23 -0.23 -0.27 -0.28 -0.37 -0.37 -0.36 -0.36 -0.36 -0.31 -0.37 -0.35 -0.35 -0.34 -0.27
0.00 0.00 0.00 0.00 0.00 0.00 0.00 0.00 0.00 0.00 0.00 0.00 0.00 0.00 0.00 0.00 0.00 0.00 0.00 0.00 0.00 0.00 0.00 0.00 0.00 0.00 0.00 0.00 0.00 0.00 0.00 0.00 0.00 0.00 0.00 0.00 0.00 0.00 0.00 0.00 0.00 0.00 0.00 0.00 0.00 0.00 0.00 0.00 0.00 0.00 0.00 0.00 0.00 0.00 0.00 0.00 0.00 -0.00 -0.00 -0.00 -0.00 -0.00 -0.01 -0.01 -0.01 -0.01 -0.02 -0.01 -0.01 -0.01 -0.02 -0.02 -0.05 -0.05 -0.08 -0.10 -0.10 -0.12 -0.13 -0.18 -0.18 -0.22 -0.28 -0.27 -0.25 -0.25 -0.30 -0.31 -0.30 -0.30 -0.28 -0.32 -0.31 -0.31 -0.35 -0.34 -0.34 -0.34 -0.29 -0.27 -0.27 -0.32 -0.33
0.00 0.00 0.00 0.00 0.00 0.00 0.00 0.00 0.00 0.00 0.00 0.00 0.00 0.00 0.00 0.00 0.00 0.00 0.00 0.00 0.00 0.00 0.00 0.00 0.00 0.00 0.00 0.00 0.00 0.00 0.00 0.00 0.00 0.00 0.00 0.00 0.00 0.00 0.00 0.00 0.00 0.00 0.00 0.00 0.00 0.00 0.00 0.00 0.00 0.00 0.00 0.00 0.00 0.00 0.00 0.00 0.00 0.00 -0.00 -0.00 -0.00 -0.00 -0.00 -0.00 0.00 0.00 0.00 0.00 -0.00 -0.00 -0.02 -0.03 -0.06 -0.06 -0.07 -0.09 -0.09 -0.10 -0.13 -0.16 -0.16 -0.22 -0.27 -0.28 -0.27 -0.27 -0.29 -0.30 -0.33 -0.33 -0.32 -0.35 -0.34 -0.34 -0.32 -0.35 -0.35 -0.34 -0.31 -0.31 -0.31 -0.26 -0.30
0.00 0.00 0.00 0.00 0.00 0.00 0.00 0.00 0.00 0.00 0.00 0.00 0.00 0.00 0.00 0.00 0.00 0.00 0.00 0.00 0.00 0.00 0.00 0.00 0.00 0.00 0.00 0.00 0.00 0.00 0.00 0.00 0.00 0.00 0.00 0.00 0.00 0.00 0.00 0.00 0.00 0.00 0.00 0.00 0.00 0.00 0.00 0.00 0.00 0.00 0.00 0.00 0.00 0.00 0.00 0.00 0.00 0.00 0.00 0.00 0.00 -0.00 0.00 0.00 0.00 0.00 0.00 0.00 0.00 0.00 -0.01 -0.02 -0.02 -0.02 -0.07 -0.07 -0.07 -0.09 -0.10 -0.14 -0.14 -0.17 -0.21 -0.27 -0.27 -0.27 -0.29 -0.32 -0.32 -0.32 -0.33 -0.35 -0.39 -0.39 -0.38 -0.42 -0.42 -0.40 -0.34 -0.33 -0.33 -0.28 -0.26
0.00 0.00 0.00 0.00 0.00 0.00 0.00 0.00 0.00 0.00 0.00 0.00 0.00 0.00 0.00 0.00 0.00 0.00 0.00 0.00 0.00 0.00 0.00 0.00 0.00 0.00 0.00 0.00 0.00 0.00 0.00 0.00 0.00 0.00 0.00 0.00 0.00 0.00 0.00 0.00 0.00 0.00 0.00 0.00 0.00 0.00 0.00 0.00 0.00 0.00 0.00 0.00 0.00 0.00 0.00 0.00 0.00 0.00 0.00 0.00 0.00 0.00 0.00 0.00 0.00 0.00 0.00 0.00 -0.00 -0.00 -0.00 -0.01 -0.01 -0.01 -0.02 -0.06 -0.06 -0.08 -0.07 -0.14 -0.14 -0.18 -0.17 -0.23 -0.30 -0.30 -0.26 -0.28 -0.34 -0.34 -0.34 -0.32 -0.34 -0.34 -0.41 -0.43 -0.43 -0.44 -0.41 -0.38 -0.38 -0.35 -0.31
0.00 0.00 0.00 0.00 0.00 0.00 0.00 0.00 0.00 0.00 0.00 0.00 0.00 0.00 0.00 0.00 0.00 0.00 0.00 0.00 0.00 0.00 0.00 0.00 0.00 0.00 0.00 0.00 0.00 0.00 0.00 0.00 0.00 0.00 0.00 0.00 0.00 0.00 0.00 0.00 0.00 0.00 0.00 0.00 0.00 0.00 0.00 0.00 0.00 0.00 0.00 0.00 0.00 0.00 0.00 0.00 0.00 0.00 0.00 0.00 0.00 0.00 0.00 0.00 0.00 0.00 0.00 0.00 -0.00 -0.00 -0.01 -0.02 -0.02 -0.02 -0.02 -0.01 -0.01 -0.00 -0.02 -0.04 -0.04 -0.12 -0.06 -0.09 -0.15 -0.15 -0.13 -0.17 -0.20 -0.20 -0.31 -0.26 -0.31 -0.31 -0.37 -0.43 -0.43 -0.46 -0.45 -0.45 -0.45 -0.39 -0.36
0.00 0.00 0.00 0.00 0.00 0.00 0.00 0.00 0.00 0.00 0.00 0.00 0.00 0.00 0.00 0.00 0.00 0.00 0.00 0.00 0.00 0.00 0.00 0.00 0.00 0.00 0.00 0.00 0.00 0.00 0.00 0.00 0.00 0.00 0.00 0.00 0.00 0.00 0.00 0.00 0.00 0.00 0.00 0.00 0.00 0.00 0.00 0.00 0.00 0.00 0.00 0.00 0.00 0.00 0.00 0.00 0.00 0.00 0.00 0.00 0.00 0.00 0.00 0.00 0.00 0.00 0.00 0.00 -0.00 -0.00 -0.01 -0.01 -0.01 -0.01 -0.02 -0.02 -0.02 -0.02 -0.01 -0.01 -0.01 -0.02 -0.02 -0.04 -0.07 -0.07 -0.05 -0.09 -0.12 -0.12 -0.14 -0.13 -0.22 -0.22 -0.31 -0.33 -0.33 -0.45 -0.49 -0.50 -0.50 -0.48 -0.40
0.00 0.00 0.00 0.00 0.00 0.00 0.00 0.00 0.00 0.00 0.00 0.00 0.00 0.00 0.00 0.00 0.00 0.00 0.00 0.00 0.00 0.00 0.00 0.00 0.00 0.00 0.00 0.00 0.00 0.00 0.00 0.00 0.00 0.00 0.00 0.00 0.00 0.00 0.00 0.00 0.00 0.00 0.00 0.00 0.00 0.00 0.00 0.00 0.00 0.00 0.00 0.00 0.00 0.00 0.00 0.00 0.00 0.00 0.00 0.00 0.00 0.00 0.00 0.00 0.00 0.00 0.00 0.00 0.00 0.00 0.00 -0.01 -0.01 -0.01 -0.01 -0.02 -0.02 -0.01 -0.01 -0.02 -0.02 -0.01 -0.02 -0.02 -0.03 -0.03 -0.05 -0.04 -0.05 -0.05 -0.10 -0.15 -0.16 -0.16 -0.16 -0.27 -0.27 -0.35 -0.43 -0.45 -0.45 -0.49 -0.47
0.00 0.00 0.00 0.00 0.00 0.00 0.00 0.00 0.00 0.00 0.00 0.00 0.00 0.00 0.00 0.00 0.00 0.00 0.00 0.00 0.00 0.00 0.00 0.00 0.00 0.00 0.00 0.00 0.00 0.00 0.00 0.00 0.00 0.00 0.00 0.00 0.00 0.00 0.00 0.00 0.00 0.00 0.00 0.00 0.00 0.00 0.00 0.00 0.00 0.00 0.00 0.00 0.00 0.00 0.00 0.00 0.00 0.00 0.00 0.00 0.00 0.00 0.00 0.00 0.00 0.00 0.00 0.00 0.00 0.00 0.00 0.00 -0.01 -0.01 -0.01 -0.02 -0.02 -0.01 -0.01 -0.01 -0.01 -0.02 -0.02 -0.02 -0.02 -0.02 -0.04 -0.04 -0.06 -0.06 -0.08 -0.11 -0.17 -0.17 -0.18 -0.19 -0.19 -0.36 -0.43 -0.49 -0.49 -0.47 -0.48
0.00 0.00 0.00 0.00 0.00 0.00 0.00 0.00 0.00 0.00 0.00 0.00 0.00 0.00 0.00 0.00 0.00 0.00 0.00 0.00 0.00 0.00 0.00 0.00 0.00 0.00 0.00 0.00 0.00 0.00 0.00 0.00 0.00 0.00 0.00 0.00 0.00 0.00 0.00 0.00 0.00 0.00 0.00 0.00 0.00 0.00 0.00 0.00 0.00 0.00 0.00 0.00 0.00 0.00 0.00 0.00 0.00 0.00 0.00 0.00 0.00 0.00 0.00 0.00 0.00 0.00 0.00 0.00 0.00 0.00 0.00 0.00 0.00 0.00 -0.01 -0.01 -0.01 -0.01 -0.01 -0.02 -0.02 -0.01 -0.02 -0.02 -0.02 -0.02 -0.03 -0.03 -0.04 -0.04 -0.07 -0.08 -0.14 -0.14 -0.16 -0.18 -0.18 -0.21 -0.44 -0.47 -0.47 -0.51 -0.49
0.00 0.00 0.00 0.00 0.00 0.00 0.00 0.00 0.00 0.00 0.00 0.00 0.00 0.00 0.00 0.00 0.00 0.00 0.00 0.00 0.00 0.00 0.00 0.00 0.00 0.00 0.00 0.00 0.00 0.00 0.00 0.00 0.00 0.00 0.00 0.00 0.00 0.00 0.00 0.00 0.00 0.00 0.00 0.00 0.00 0.00 0.00 0.00 0.00 0.00 0.00 0.00 0.00 0.00 0.00 0.00 0.00 0.00 0.00 0.00 0.00 0.00 0.00 0.00 0.00 0.00 0.00 0.00 0.00 0.00 0.00 0.00 0.00 0.00 0.00 -0.01 -0.01 -0.00 -0.01 -0.01 -0.01 -0.02 -0.02 -0.02 -0.02 -0.02 -0.02 -0.03 -0.03 -0.03 -0.04 -0.07 -0.10 -0.10 -0.19 -0.20 -0.20 -0.20 -0.24 -0.39 -0.39 -0.49 -0.52
0.00 0.00 0.00 0.00 0.00 0.00 0.00 0.00 0.00 0.00 0.00 0.00 0.00 0.00 0.00 0.00 0.00 0.00 0.00 0.00 0.00 0.00 0.00 0.00 0.00 0.00 0.00 0.00 0.00 0.00 0.00 0.00 0.00 0.00 0.00 0.00 0.00 0.00 0.00 0.00 0.00 0.00 0.00 0.00 0.00 0.00 0.00 0.00 0.00 0.00 0.00 0.00 0.00 0.00 0.00 0.00 0.00 0.00 0.00 0.00 0.00 0.00 0.00 0.00 0.00 0.00 0.00 0.00 0.00 0.00 0.00 0.00 0.00 0.00 0.00 0.00 0.00 0.00 -0.00 -0.01 -0.01 -0.02 -0.02 -0.04 -0.03 -0.03 -0.02 -0.02 -0.03 -0.03 -0.02 -0.05 -0.08 -0.08 -0.11 -0.13 -0.13 -0.19 -0.21 -0.23 -0.23 -0.33 -0.61
0.00 0.00 0.00 0.00 0.00 0.00 0.00 0.00 0.00 0.00 0.00 0.00 0.00 0.00 0.00 0.00 0.00 0.00 0.00 0.00 0.00 0.00 0.00 0.00 0.00 0.00 0.00 0.00 0.00 0.00 0.00 0.00 0.00 0.00 0.00 0.00 0.00 0.00 0.00 0.00 0.00 0.00 0.00 0.00 0.00 0.00 0.00 0.00 0.00 0.00 0.00 0.00 0.00 0.00 0.00 0.00 0.00 0.00 0.00 0.00 0.00 0.00 0.00 0.00 0.00 0.00 0.00 0.00 0.00 0.00 0.00 0.00 0.00 0.00 0.00 0.00 0.00 0.00 0.00 -0.00 -0.00 -0.02 -0.03 -0.03 -0.04 -0.04 -0.04 -0.02 -0.02 -0.02 -0.02 -0.02 -0.06 -0.06 -0.10 -0.10 -0.10 -0.13 -0.18 -0.18 -0.18 -0.26 -0.41
0.00 0.00 0.00 0.00 0.00 0.00 0.00 0.00 0.00 0.00 0.00 0.00 0.00 0.00 0.00 0.00 0.00 0.00 0.00 0.00 0.00 0.00 0.00 0.00 0.00 0.00 0.00 0.00 0.00 0.00 0.00 0.00 0.00 0.00 0.00 0.00 0.00 0.00 0.00 0.00 0.00 0.00 0.00 0.00 0.00 0.00 0.00 0.00 0.00 0.00 0.00 0.00 0.00 0.00 0.00 0.00 0.00 0.00 0.00 0.00 0.00 0.00 0.00 0.00 0.00 0.00 0.00 0.00 0.00 0.00 0.00 0.00 0.00 0.00 0.00 0.00 0.00 0.00 0.00 0.00 0.00 -0.01 -0.01 -0.04 -0.04 -0.04 -0.04 -0.04 -0.03 -0.03 -0.04 -0.05 -0.04 -0.04 -0.06 -0.09 -0.09 -0.10 -0.14 -0.16 -0.16 -0.19 -0.28
0.00 0.00 0.00 0.00 0.00 0.00 0.00 0.00 0.00 0.00 0.00 0.00 0.00 0.00 0.00 0.00 0.00 0.00 0.00 0.00 0.00 0.00 0.00 0.00 0.00 0.00 0.00 0.00 0.00 0.00 0.00 0.00 0.00 0.00 0.00 0.00 0.00 0.00 0.00 0.00 0.00 0.00 0.00 0.00 0.00 0.00 0.00 0.00 0.00 0.00 0.00 0.00 0.00 0.00 0.00 0.00 0.00 0.00 0.00 0.00 0.00 0.00 0.00 0.00 0.00 0.00 0.00 0.00 0.00 0.00 0.00 0.00 0.00 0.00 0.00 0.00 0.00 0.00 0.00 0.00 0.00 0.00 -0.01 -0.02 -0.04 -0.04 -0.05 -0.05 -0.04 -0.04 -0.09 -0.09 -0.09 -0.09 -0.06 -0.11 -0.11 -0.11 -0.11 -0.12 -0.12 -0.19 -0.25
0.00 0.00 0.00 0.00 0.00 0.00 0.00 0.00 0.00 0.00 0.00 0.00 0.00 0.00 0.00 0.00 0.00 0.00 0.00 0.00 0.00 0.00 0.00 0.00 0.00 0.00 0.00 0.00 0.00 0.00 0.00 0.00 0.00 0.00 0.00 0.00 0.00 0.00 0.00 0.00 0.00 0.00 0.00 0.00 0.00 0.00 0.00 0.00 0.00 0.00 0.00 0.00 0.00 0.00 0.00 0.00 0.00 0.00 0.00 0.00 0.00 0.00 0.00 0.00 0.00 0.00 0.00 0.00 0.00 0.00 0.00 0.00 0.00 0.00 0.00 0.00 0.00 0.00 0.00 0.00 0.00 0.00 -0.00 -0.02 -0.03 -0.03 -0.06 -0.06 -0.07 -0.07 -0.07 -0.11 -0.13 -0.13 -0.13 -0.10 -0.10 -0.14 -0.13 -0.15 -0.15 -0.15 -0.17
0.00 0.00 0.00 0.00 0.00 0.00 0.00 0.00 0.00 0.00 0.00 0.00 0.00 0.00 0.00 0.00 0.00 0.00 0.00 0.00 0.00 0.00 0.00 0.00 0.00 0.00 0.00 0.00 0.00 0.00 0.00 0.00 0.00 0.00 0.00 0.00 0.00 0.00 0.00 0.00 0.00 0.00 0.00 0.00 0.00 0.00 0.00 0.00 0.00 0.00 0.00 0.00 0.00 0.00 0.00 0.00 0.00 0.00 0.00 0.00 0.00 0.00 0.00 0.00 0.00 0.00 0.00 -0.00 -0.00 -0.00 -0.00 -0.00 0.00 0.00 0.00 0.00 0.00 0.00 0.00 0.00 0.00 0.00 0.00 -0.01 -0.04 -0.04 -0.06 -0.07 -0.08 -0.08 -0.08 -0.08 -0.14 -0.14 -0.12 -0.15 -0.15 -0.12 -0.12 -0.14 -0.14 -0.16 -0.18
0.00 0.00 0.00 0.00 0.00 0.00 0.00 0.00 0.00 0.00 0.00 0.00 0.00 0.00 0.00 0.00 0.00 0.00 0.00 0.00 0.00 0.00 0.00 0.00 0.00 0.00 0.00 0.00 0.00 0.00 0.00 0.00 0.00 0.00 0.00 0.00 0.00 0.00 0.00 0.00 0.00 0.00 0.00 0.00 0.00 0.00 0.00 0.00 0.00 0.00 0.00 0.00 0.00 0.00 0.00 0.00 0.00 0.00 0.00 0.00 0.00 0.00 0.00 0.00 0.00 0.00 0.00 -0.00 -0.00 -0.00 -0.00 0.00 0.00 0.00 0.00 0.00 0.00 0.00 0.00 0.00 0.00 0.00 0.00 -0.00 -0.02 -0.02 -0.04 -0.08 -0.08 -0.08 -0.11 -0.11 -0.10 -0.10 -0.12 -0.12 -0.12 -0.12 -0.13 -0.11 -0.11 -0.13 -0.18
0.00 0.00 0.00 0.00 0.00 0.00 0.00 0.00 0.00 0.00 0.00 0.00 0.00 0.00 0.00 0.00 0.00 0.00 0.00 0.00 0.00 0.00 0.00 0.00 0.00 0.00 0.00 0.00 0.00 0.00 0.00 0.00 0.00 0.00 0.00 0.00 0.00 0.00 0.00 0.00 0.00 0.00 0.00 0.00 0.00 0.00 0.00 0.00 0.00 0.00 0.00 0.00 0.00 0.00 0.00 0.00 0.00 0.00 0.00 0.00 0.00 0.00 0.00 0.00 0.00 0.00 0.00 0.00 0.00 0.00 0.00 0.00 0.00 0.00 0.00 0.00 0.00 0.00 0.00 0.00 0.00 0.00 0.00 0.00 -0.01 -0.01 -0.01 -0.05 -0.09 -0.09 -0.08 -0.11 -0.10 -0.10 -0.10 -0.11 -0.11 -0.12 -0.12 -0.13 -0.13 -0.12 -0.11
0.00 0.00 0.00 0.00 0.00 0.00 0.00 0.00 0.00 0.00 0.00 0.00 0.00 0.00 0.00 0.00 0.00 0.00 0.00 0.00 0.00 0.00 0.00 0.00 0.00 0.00 0.00 0.00 0.00 0.00 0.00 0.00 0.00 0.00 0.00 0.00 0.00 0.00 0.00 0.00 0.00 0.00 0.00 0.00 0.00 0.00 0.00 0.00 0.00 0.00 0.00 0.00 0.00 0.00 0.00 0.00 0.00 0.00 0.00 0.00 0.00 0.00 0.00 0.00 0.00 0.00 0.00 0.00 0.00 0.00 0.00 0.00 0.00 0.00 0.00 0.00 0.00 0.00 0.00 0.00 0.00 0.00 0.00 0.00 0.00 0.00 0.00 -0.02 -0.04 -0.04 -0.04 -0.08 -0.11 -0.11 -0.13 -0.13 -0.13 -0.15 -0.13 -0.16 -0.16 -0.14 -0.13
0.00 0.00 0.00 0.00 0.00 0.00 0.00 0.00 0.00 0.00 0.00 0.00 0.00 0.00 0.00 0.00 0.00 0.00 0.00 0.00 0.00 0.00 0.00 0.00 0.00 0.00 0.00 0.00 0.00 0.00 0.00 0.00 0.00 0.00 0.00 0.00 0.00 0.00 0.00 0.00 0.00 0.00 0.00 0.00 0.00 0.00 0.00 0.00 0.00 0.00 0.00 0.00 0.00 0.00 0.00 0.00 0.00 0.00 0.00 0.00 0.00 0.00 0.00 0.00 0.00 0.00 0.00 0.00 0.00 0.00 0.00 0.00 0.00 0.00 0.00 0.00 0.00 0.00 0.00 0.00 0.00 0.00 0.00 0.00 0.00 0.00 0.00 0.00 -0.02 -0.02 -0.01 -0.04 -0.08 -0.08 -0.11 -0.13 -0.13 -0.15 -0.16 -0.23 -0.23 -0.24 -0.22
0.00 0.00 0.00 0.00 0.00 0.00 0.00 0.00 0.00 0.00 0.00 0.00 0.00 0.00 0.00 0.00 0.00 0.00 0.00 0.00 0.00 0.00 0.00 0.00 0.00 0.00 0.00 0.00 0.00 0.00 0.00 0.00 0.00 0.00 0.00 0.00 0.00 0.00 0.00 0.00 0.00 0.00 0.00 0.00 0.00 0.00 0.00 0.00 0.00 0.00 0.00 0.00 0.00 0.00 0.00 0.00 0.00 0.00 0.00 0.00 0.00 0.00 0.00 0.00 0.00 0.00 0.00 0.00 0.00 0.00 0.00 0.00 0.00 0.00 0.00 0.00 0.00 0.00 0.00 0.00 0.00 0.00 0.00 0.00 0.00 0.00 0.00 0.00 0.00 0.00 -0.00 -0.01 -0.04 -0.04 -0.05 -0.13 -0.13 -0.19 -0.23 -0.22 -0.22 -0.25 -0.26
0.00 0.00 0.00 0.00 0.00 0.00 0.00 0.00 0.00 0.00 0.00 0.00 0.00 0.00 0.00 0.00 0.00 0.00 0.00 0.00 0.00 0.00 0.00 0.00 0.00 0.00 0.00 0.00 0.00 0.00 0.00 -0.00 0.00 0.00 0.00 0.00 0.00 0.00 -0.00 0.00 0.00 0.00 0.00 0.00 -0.00 -0.00 -0.00 -0.00 0.00 0.00 0.00 0.00 0.00 0.00 0.00 0.00 0.00 0.00 0.00 0.00 0.00 0.00 0.00 0.00 0.00 0.00 0.00 0.00 0.00 0.00 0.00 0.00 0.00 0.00 0.00 0.00 0.00 0.00 0.00 0.00 0.00 -0.00 0.00 0.00 0.00 0.00 0.00 0.00 0.00 0.00 -0.00 -0.00 -0.01 -0.01 -0.01 -0.04 -0.04 -0.10 -0.18 -0.11 -0.11 -0.14 -0.18
0.00 0.00 0.00 0.00 0.00 0.00 0.00 0.00 0.00 0.00 0.00 0.00 0.00 0.00 0.00 0.00 0.00 0.00 0.00 0.00 0.00 0.00 0.00 0.00 0.00 0.00 0.00 0.00 0.00 0.00 0.00 0.00 0.00 0.00 0.00 0.00 0.00 0.00 -0.00 0.00 0.00 0.00 -0.00 -0.00 -0.00 -0.00 -0.01 -0.00 0.00 0.00 0.00 0.00 0.00 0.00 0.00 0.00 0.00 0.00 0.00 0.00 0.00 0.00 0.00 0.00 0.00 0.00 0.00 0.00 0.00 0.00 0.00 0.00 0.00 0.00 0.00 -0.01 -0.01 -0.01 -0.01 -0.00 -0.00 -0.00 -0.00 -0.00 -0.00 -0.00 -0.01 -0.01 -0.01 -0.01 -0.01 -0.01 -0.01 -0.01 -0.01 -0.02 -0.02 -0.04 -0.06 -0.07 -0.07 -0.09 -0.11
0.00 0.00 0.00 0.00 0.00 0.00 0.00 0.00 0.00 0.00 0.00 0.00 0.00 0.00 0.00 0.00 0.00 0.00 0.00 0.00 0.00 0.00 0.00 0.00 0.00 0.00 0.00 0.00 0.00 0.00 0.00 0.00 0.00 0.00 0.00 -0.00 -0.00 0.00 0.00 0.00 0.00 -0.00 -0.00 -0.00 -0.00 -0.00 -0.00 -0.01 -0.00 -0.00 -0.00 -0.01 -0.00 -0.00 0.00 0.00 0.00 0.00 0.00 0.00 0.00 0.00 0.00 0.00 0.00 0.00 0.00 0.00 0.00 0.00 -0.00 -0.01 -0.01 -0.01 -0.01 -0.01 -0.01 -0.01 -0.01 -0.01 -0.01 -0.01 -0.02 -0.02 -0.01 -0.01 -0.01 -0.01 -0.01 -0.01 -0.01 -0.01 -0.01 -0.01 -0.02 -0.02 -0.02 -0.03 -0.05 -0.06 -0.06 -0.06 -0.08
0.00 0.00 0.00 0.00 0.00 0.00 0.00 0.00 0.00 0.00 0.00 0.00 0.00 0.00 0.00 0.00 0.00 0.00 0.00 0.00 0.00 0.00 0.00 0.00 0.00 0.00 0.00 0.00 0.00 0.00 0.00 0.00 0.00 0.00 -0.00 0.00 0.00 0.00 0.00 0.00 0.00 0.00 -0.00 -0.00 -0.00 -0.00 -0.00 -0.01 -0.01 -0.01 -0.01 -0.01 -0.01 -0.01 -0.00 0.00 0.00 0.00 0.00 0.00 0.00 0.00 0.00 0.00 0.00 0.00 0.00 0.00 -0.00 -0.00 0.00 0.00 0.00 0.00 -0.00 -0.00 -0.00 -0.00 -0.01 -0.01 -0.01 -0.00 -0.01 -0.01 -0.01 -0.01 -0.00 -0.01 -0.01 -0.01 -0.00 -0.01 -0.01 -0.01 -0.01 -0.01 -0.01 -0.03 -0.05 -0.04 -0.04 -0.06 -0.07